Weather observations for the past three days for
Vavau International Airport
| Date | Time (+13) | Wind (mph) | Vis. (mi.) | Weather | Sky Cond. | Temperature (ºF) | Relative Humidity | Wind Chill (°F) | Heat Index (°F) | Pressure | Precipitation (in) | ||||||
|---|---|---|---|---|---|---|---|---|---|---|---|---|---|---|---|---|---|
| Air | Dwpt | 6 hour | altimeter (in) | sea level (mb) | 1 hr | 3 hr | 6 hr | ||||||||||
| Max. | Min. | ||||||||||||||||
| 04 | 12:00 | E 13 | 0.00 | Mostly Cloudy | SCT016TCU BKN040 | 78.8 | 69.8 | 74% | 81 | 0 | 0.0 | ||||||
| 04 | 11:00 | E 10 | 0.00 | Mostly Cloudy | BKN016TCU | 77 | 71.6 | 83% | 78 | 0 | 0.0 | ||||||
| 04 | 10:00 | E 15 | 0.00 | A Few Clouds | FEW016 | 77 | 69.8 | 79% | 79 | 0 | 0.0 | ||||||
| 04 | 09:00 | E 14 | 0.00 | Mostly Cloudy | FEW010 FEW016TCU BKN120 | 77 | 69.8 | 79% | 79 | 0 | 0.0 | ||||||
| 04 | 08:00 | E 9 | 0.00 | A Few Clouds | FEW016TCU | 75.2 | 69.8 | 83% | 75 | 0 | 0.0 | ||||||
| 04 | 06:00 | E 10 | 0.00 | Mostly Cloudy | FEW008 SCT015TCU BKN040 | 73.4 | 69.8 | 89% | 0 | 0.0 | |||||||
| 04 | 05:00 | E 9 | 0.00 | Mostly Cloudy | SCT016 BKN016TCU BKN040 | 71.6 | 69.8 | 94% | 0 | 0.0 | |||||||
| 04 | 04:00 | E 9 | 0.00 | Mostly Cloudy | SCT016 BKN016TCU BKN040 | 71.6 | 69.8 | 94% | 0 | 0.0 | |||||||
| 04 | 03:00 | E 10 | 0.00 | Mostly Cloudy | FEW008 SCT015TCU BKN040 | 73.4 | 69.8 | 89% | 0 | 0.0 | |||||||
| 04 | 02:00 | E 10 | 0.00 | Mostly Cloudy | FEW006 SCT015 BKN040 | 73.4 | 69.8 | 89% | 0 | 0.0 | |||||||
| 04 | 01:00 | E 10 | 0.00 | Mostly Cloudy | FEW006 SCT015 BKN040 | 73.4 | 69.8 | 89% | 0 | 0.0 | |||||||
| 03 | 19:00 | E 9 | 0.00 | Mostly Cloudy | SCT007 SCT015 BKN040 | 71.6 | 69.8 | 94% | 0 | 0.0 | |||||||
| 03 | 18:00 | SE 12 | 0.00 | Mostly Cloudy | FEW008 SCT015TCU BKN040 | 73.4 | 71.6 | 94% | 0 | 0.0 | |||||||
| 03 | 17:00 | E 10 | 0.00 | Mostly Cloudy | FEW009 SCT015TCU BKN120 | 75.2 | 71.6 | 89% | 75 | 0 | 0.0 | ||||||
| 03 | 16:00 | E 7 | 0.00 | Mostly Cloudy | SCT007 BKN016 BKN110 | 73.4 | 71.6 | 94% | 0 | 0.0 | |||||||
| 03 | 15:00 | E 7 | 0.00 | Light Rain | SCT006 BKN016 OVC100 | 73.4 | 71.6 | 94% | 0 | 0.0 | |||||||
| 03 | 14:00 | E 8 | 0.00 | Overcast | SCT007 BKN016TCU OVC110 | 73.4 | 71.6 | 94% | 0 | 0.0 | |||||||
| 03 | 13:00 | E 9 | 0.00 | Light Rain | SCT006 BKN016 OVC100 | 73.4 | 71.6 | 94% | 0 | 0.0 | |||||||
| 03 | 12:00 | SE 10 | 0.00 | Light Rain | SCT005 BKN016 OVC035 | 73.4 | 71.6 | 94% | 0 | 0.0 | |||||||
| 03 | 11:00 | SE 9 | 0.00 | Overcast | SCT005 BKN016TCU OVC030 | 73.4 | 71.6 | 94% | 0 | 0.0 | |||||||
| 03 | 10:00 | SE 12 | 0.00 | Overcast | SCT007 BKN016 OVC040 | 73.4 | 71.6 | 94% | 0 | 0.0 | |||||||
| 03 | 09:00 | SE 8 | 0.00 | Mostly Cloudy | SCT008 BKN016TCU BKN040 | 73.4 | 71.6 | 94% | 0 | 0.0 | |||||||
| 03 | 08:00 | SE 7 | 0.00 | Light Showers Rain | SCT008 BKN016TCU BKN040 | 73.4 | 71.6 | 94% | 0 | 0.0 | |||||||
| 03 | 07:00 | S 7 | 0.00 | Overcast | SCT008 BKN016TCU OVC040 | 71.6 | 69.8 | 94% | 0 | 0.0 | |||||||
| 03 | 06:00 | SE 7 | 0.00 | Light Showers Rain | SCT008 BKN016TCU OVC040 | 69.8 | 68 | 94% | 0 | 0.0 | |||||||
| 03 | 05:00 | SE 6 | 0.00 | Overcast | FEW008 SCT016TCU OVC040 | 69.8 | 68 | 94% | 0 | 0.0 | |||||||
| 03 | 04:00 | SE 6 | 0.00 | Overcast | SCT008 BKN016TCU OVC040 | 71.6 | 69.8 | 94% | 0 | 0.0 | |||||||
| 03 | 03:00 | S 7 | 0.00 | Overcast | FEW008 SCT016TCU OVC040 | 71.6 | 68 | 88% | 0 | 0.0 | |||||||
| 03 | 02:00 | SE 7 | 0.00 | Overcast | FEW008 BKN016TCU OVC040 | 73.4 | 69.8 | 89% | 0 | 0.0 | |||||||
| 03 | 01:00 | SE 6 | 0.00 | Overcast | SCT008 BKN016 OVC040 | 73.4 | 69.8 | 89% | 0 | 0.0 | |||||||
| 02 | 19:00 | SE 10 | 0.00 | Mostly Cloudy | FEW008 BKN016TCU BKN040 | 71.6 | 68 | 88% | 0 | 0.0 | |||||||
| 02 | 18:00 | S 10 | 0.00 | Mostly Cloudy | FEW008 BKN016TCU BKN040 | 71.6 | 68 | 88% | 0 | 0.0 | |||||||
| 02 | 17:00 | S 9 | 0.00 | Mostly Cloudy | SCT008 BKN016TCU BKN040 | 73.4 | 68 | 83% | 0 | 0.0 | |||||||
| 02 | 16:00 | S 9 | 0.00 | Mostly Cloudy | SCT008 BKN016 BKN040 | 73.4 | 69.8 | 89% | 0 | 0.0 | |||||||
| 02 | 15:00 | S 10 | 0.00 | Mostly Cloudy | SCT008 BKN016 BKN040 | 73.4 | 68 | 83% | 0 | 0.0 | |||||||
| 02 | 14:00 | SE 9 | 0.00 | Mostly Cloudy | SCT008 BKN016TCU BKN040 | 73.4 | 68 | 83% | 0 | 0.0 | |||||||
| 02 | 13:00 | SE 8 | 0.00 | Overcast | SCT008 BKN016TCU OVC045 | 73.4 | 68 | 83% | 0 | 0.0 | |||||||
| 02 | 12:00 | SE 6 | 0.00 | Overcast | SCT008 BKN016TCU OVC045 | 73.4 | 69.8 | 89% | 0 | 0.0 | |||||||
| 02 | 11:00 | SE 7 | 0.00 | Light Showers Rain | SCT008 BKN016TCU BKN045 | 73.4 | 69.8 | 89% | 0 | 0.0 | |||||||
| 02 | 10:00 | SE 6 | 0.00 | Light Showers Rain | FEW008 BKN016 BKN040 | 73.4 | 71.6 | 94% | 0 | 0.0 | |||||||
| 02 | 08:00 | SE 5 | 0.00 | Mostly Cloudy | FEW008 SCT015 BKN040 | 73.4 | 68 | 83% | 0 | 0.0 | |||||||
| 02 | 06:00 | SE 3 | 0.00 | Mostly Cloudy | SCT015 BKN040 | 73.4 | 69.8 | 89% | 0 | 0.0 | |||||||
| 02 | 05:00 | SE 3 | 0.00 | Mostly Cloudy | FEW014 BKN040 | 71.6 | 69.8 | 94% | 0 | 0.0 | |||||||
| 02 | 04:00 | SE 6 | 0.00 | Mostly Cloudy | FEW014 BKN040 | 73.4 | 68 | 83% | 0 | 0.0 | |||||||
| 02 | 03:00 | SE 3 | 0.00 | Mostly Cloudy | FEW014 BKN040 | 73.4 | 69.8 | 89% | 0 | 0.0 | |||||||
| 02 | 02:00 | SE 3 | 0.00 | Mostly Cloudy | FEW014 BKN040 | 73.4 | 69.8 | 89% | 0 | 0.0 | |||||||
| 02 | 01:00 | SE 5 | 0.00 | Mostly Cloudy | SCT014 BKN100 | 73.4 | 68 | 83% | 0 | 0.0 | |||||||
| 01 | 18:00 | S 5 | 0.00 | Light Drizzle | FEW007 SCT015TCU BKN040 | 73.4 | 69.8 | 89% | 0 | 0.0 | |||||||
| 01 | 17:00 | S 6 | 0.00 | Mostly Cloudy | SCT015TCU BKN040 | 73.4 | 69.8 | 89% | 0 | 0.0 | |||||||
| 01 | 15:00 | S 6 | 0.00 | Mostly Cloudy | SCT016TCU BKN040 | 75.2 | 71.6 | 89% | 75 | 0 | 0.0 | ||||||
| 01 | 14:00 | S 6 | 0.00 | Mostly Cloudy | FEW008 BKN016TCU | 77 | 71.6 | 83% | 78 | 0 | 0.0 | ||||||
| Date | Time (+13) | Wind (mph) | Vis. (mi.) | Weather | Sky Cond. | Air | Dwpt | Max. | Min. | Relative Humidity | Wind Chill (°F) | Heat Index (°F) | altimeter (in) | sea level (mb) | 1 hr | 3 hr | 6 hr |
| 6 hour | |||||||||||||||||
| Temperature (ºF) | Pressure | Precipitation (in) | |||||||||||||||